Theta_e
343 345 347 347 348 349 350 350 351 350 349 350 350 351 351 350 354 352 354 354 359 358 358 356 354 356 356 354 352 353 354 354 353 353 353 354 357 357 364 360 364 365 366 365 365 365 362 362 362 362 359 361 361 358 354 355 362 362 361 369 350 355 353 349 342 339 342 346 358 355 358 353 365 364 344 355 351 354 360 360 357 357 358 361 363
346 345 345 347 347 348 349 349 351 347 349 349 349 349 350 349 353 351 354 356 358 359 358 358 359 356 354 354 352 351 353 353 353 353 351 353 365 368 363 364 365 365 367 366 366 363 362 360 361 362 361 364 364 364 361 366 364 360 356 358 360 349 350 347 342 338 336 337 341 340 354 362 357 353 345 347 347 353 353 357 357 359 355 357 360
343 344 344 345 346 348 348 349 348 350 348 348 350 350 350 351 354 354 353 354 357 357 360 359 359 360 356 355 352 349 353 355 354 352 352 352 355 359 364 364 365 362 364 366 363 361 361 362 360 360 361 362 366 364 363 362 362 357 360 354 351 352 348 346 346 345 336 347 350 348 341 338 365 355 350 344 345 348 349 350 359 355 355 355 356
340 343 342 344 345 347 347 348 347 349 349 348 349 349 350 354 357 357 356 355 357 359 361 359 359 362 363 360 356 354 353 357 356 355 354 352 352 356 363 367 364 360 360 361 362 361 363 362 358 359 365 366 367 365 364 357 360 359 353 352 353 347 346 341 344 350 342 348 341 341 342 336 342 351 349 350 346 346 344 350 355 352 352 355 355
341 344 346 348 344 345 346 347 348 347 349 349 349 350 350 349 356 360 358 356 359 360 361 362 362 362 362 363 365 361 363 355 352 351 352 357 353 355 356 361 362 358 359 360 360 363 364 364 362 360 360 364 360 360 360 355 355 356 356 357 356 348 344 345 347 341 341 344 344 345 338 341 340 339 335 351 343 339 344 343 350 351 352 353 356
345 344 345 343 346 344 345 347 348 347 349 350 351 351 352 351 353 360 360 358 355 359 362 362 360 358 359 356 354 354 353 353 349 349 350 351 350 354 358 359 359 359 359 360 358 360 363 365 365 361 358 363 361 356 356 356 356 354 355 356 351 354 350 351 342 347 343 355 345 340 352 340 341 335 336 342 345 341 356 342 349 350 349 352 355
346 344 345 343 344 346 349 347 347 346 348 351 350 351 352 352 353 356 360 360 356 362 365 365 362 359 357 351 351 352 352 351 359 354 352 352 354 353 356 360 360 359 357 360 360 363 366 366 367 364 360 360 362 361 360 356 355 354 361 361 355 357 361 353 348 340 346 347 341 340 341 338 336 333 335 335 333 347 340 340 346 349 349 348 350
345 345 344 342 344 343 345 347 347 347 348 350 350 351 352 356 354 358 361 362 358 362 364 366 363 362 359 356 353 353 351 354 355 356 353 357 354 355 354 357 360 361 359 362 362 362 365 366 367 366 362 358 359 357 355 356 356 356 365 363 361 367 366 361 353 344 344 349 344 342 340 340 340 339 337 333 339 341 343 340 339 340 344 342 347
341 343 344 347 344 345 345 347 347 349 348 348 350 351 351 352 357 358 360 364 361 364 364 365 365 364 362 355 357 356 355 353 358 359 358 358 355 356 357 356 359 362 361 359 362 362 365 364 366 365 363 361 361 357 358 357 356 359 369 368 366 365 360 360 363 361 349 343 346 353 344 341 339 339 337 338 341 339 333 335 339 341 339 340 346
341 342 346 348 349 347 348 348 348 349 352 354 356 355 352 352 355 358 360 361 361 364 364 364 364 365 362 361 359 359 357 358 357 357 359 365 357 360 362 370 358 359 360 363 364 364 363 365 361 360 361 359 359 357 358 359 359 362 362 358 365 363 368 357 355 356 350 346 343 344 352 351 342 337 337 336 336 338 332 331 335 334 339 345 342
339 343 346 349 349 349 348 346 348 352 353 352 350 350 350 352 353 357 361 360 361 362 364 364 363 362 362 363 362 360 359 357 355 358 359 362 358 352 357 363 359 357 358 361 361 361 361 364 359 358 359 362 360 357 358 354 355 355 354 359 363 363 363 360 356 358 353 360 346 350 346 339 341 338 340 338 335 335 334 332 333 336 335 335 342
337 341 346 348 348 347 347 346 347 348 350 349 349 350 353 354 355 358 361 363 362 360 363 363 362 362 363 364 364 363 360 352 355 355 354 356 352 353 357 357 359 358 362 360 358 359 361 361 362 359 359 358 357 357 356 355 355 356 358 365 362 363 363 362 356 354 351 353 349 345 343 341 340 338 338 338 339 338 338 336 333 336 335 336 339
337 342 345 346 344 344 344 345 345 346 346 349 350 351 353 354 356 357 361 363 364 361 363 364 363 362 362 363 365 364 362 361 359 357 356 355 352 352 359 359 360 358 358 358 358 358 360 361 359 358 360 359 362 364 360 363 363 357 359 354 356 361 361 359 359 354 352 348 345 345 345 343 342 342 341 338 338 339 340 338 336 336 333 334 341
336 337 344 344 345 344 345 345 344 344 345 348 347 350 351 352 358 359 360 364 365 364 362 363 363 363 364 363 362 364 363 359 358 354 355 357 357 355 349 350 355 354 355 358 358 358 358 359 360 360 364 367 366 369 368 368 367 359 360 361 355 367 361 362 362 355 355 353 352 348 346 345 344 344 342 341 339 338 337 335 338 344 340 338 342
336 337 337 341 344 347 346 347 344 345 344 345 348 354 350 351 359 361 362 363 364 364 364 363 362 362 364 361 362 361 360 360 361 359 358 355 354 352 353 350 350 354 354 357 361 359 358 360 360 359 360 367 371 365 355 361 368 370 368 365 364 357 361 357 353 352 351 351 353 350 347 345 345 345 343 341 341 340 339 340 344 343 344 344 341
337 337 338 341 346 348 348 350 344 344 348 347 347 354 353 355 361 360 363 363 363 364 364 362 362 361 363 364 362 363 365 361 364 366 364 357 353 352 354 359 353 354 355 358 354 358 358 357 360 358 364 363 364 366 363 359 363 358 363 361 358 352 352 357 356 350 349 350 349 348 349 346 352 350 349 347 346 345 343 349 348 347 341 340 345
335 336 337 341 344 346 348 348 346 345 346 347 351 352 357 358 357 360 364 364 363 365 362 363 363 362 361 360 360 360 359 358 357 358 357 357 359 355 351 350 352 360 353 356 356 361 358 359 357 356 363 364 363 364 359 362 369 363 356 362 358 354 371 363 360 358 357 352 352 353 355 354 355 356 351 349 350 352 349 348 349 344 346 345 344
338 338 341 341 342 344 347 347 346 346 345 345 354 354 357 360 359 360 364 364 365 365 364 361 361 358 359 358 359 359 357 356 357 356 356 356 356 358 354 353 350 350 352 353 355 356 360 363 358 358 358 359 360 359 360 361 367 369 361 372 364 366 367 366 363 358 355 356 354 352 351 352 356 354 353 353 353 357 351 349 351 349 352 352 351
342 337 339 341 342 344 345 346 347 348 348 348 354 356 356 358 360 361 360 366 366 366 365 364 364 360 358 359 355 358 358 358 360 359 358 355 354 353 352 354 351 354 356 362 362 355 358 358 363 358 359 360 362 360 367 369 369 370 366 363 365 369 367 363 362 357 353 354 354 350 350 355 360 357 355 353 353 355 355 355 354 354 353 353 352
340 338 337 337 341 344 343 346 346 347 347 350 356 357 354 358 359 359 361 368 366 368 368 366 366 363 356 359 359 361 358 359 357 356 354 354 354 353 352 350 351 351 353 355 352 353 354 356 355 354 353 355 356 359 363 365 368 368 365 357 359 365 361 361 357 355 353 354 356 355 359 363 360 358 357 357 358 358 357 355 355 359 357 361 354
341 341 338 336 337 341 341 344 348 349 351 354 353 354 355 357 357 359 360 352 353 356 351 350 352 352 354 356 358 359 355 360 358 357 354 354 354 354 352 352 354 352 355 352 352 355 358 356 357 359 355 373 366 368 361 370 369 368 366 366 364 364 363 359 362 358 357 356 359 360 360 361 363 357 357 356 354 353 354 354 356 356 354 357 356
343 343 338 339 342 342 345 347 348 350 351 352 352 358 356 357 357 363 354 354 353 355 355 353 353 354 356 355 355 357 356 358 356 354 353 354 353 353 356 358 354 359 358 354 356 351 352 354 352 359 359 363 372 371 368 365 364 367 362 359 360 364 363 361 362 360 361 359 358 359 359 357 360 358 357 354 354 354 353 353 353 353 351 347 348
339 340 339 341 342 343 344 346 347 349 352 352 353 358 356 358 364 359 356 354 354 351 353 354 352 354 356 354 354 353 357 361 359 358 355 356 355 354 358 353 353 354 356 356 353 351 355 357 357 363 363 363 370 370 370 371 369 366 361 359 360 358 359 356 357 359 359 362 357 359 359 360 358 354 355 355 356 354 354 352 352 353 352 350 350
340 340 342 348 345 348 358 358 354 351 354 355 356 361 359 362 352 351 351 354 356 352 353 355 353 354 358 356 356 358 358 360 358 362 361 364 357 358 358 358 362 362 357 363 358 356 370 370 367 367 368 368 368 368 367 366 366 366 363 362 362 360 357 354 357 357 356 356 358 355 355 355 357 355 354 355 356 355 351 350 351 350 352 351 350
339 339 344 352 351 350 356 355 356 357 359 362 360 365 366 359 354 354 353 355 355 355 354 355 355 356 357 356 358 361 361 362 360 360 361 360 364 364 365 367 367 366 367 367 367 371 366 370 366 365 367 367 366 366 364 365 365 366 361 359 355 352 353 353 354 352 354 351 351 349 349 353 354 352 353 353 354 351 352 351 350 349 352 352 350
335 338 345 348 349 352 354 352 353 353 354 359 365 366 364 360 360 359 356 355 354 354 354 354 355 355 356 356 357 360 363 365 365 363 361 360 362 362 363 363 368 370 370 372 370 367 362 362 365 364 363 364 364 362 363 363 361 358 356 355 353 352 354 351 352 351 352 350 351 350 350 350 348 349 351 355 353 352 352 353 352 353 353 351 351
335 341 345 351 351 351 350 351 353 351 348 349 357 365 363 361 359 359 360 357 355 355 354 354 355 355 355 355 356 357 361 365 369 365 362 361 363 362 361 364 368 368 370 370 369 365 364 362 366 365 361 355 353 352 354 356 356 356 355 353 352 350 349 351 351 351 351 352 352 353 351 350 351 352 351 353 354 353 353 352 352 353 352 350 348
337 344 341 345 346 349 349 349 351 349 347 347 349 351 362 363 360 360 361 359 357 357 355 355 356 356 357 357 357 359 362 365 369 364 363 363 363 364 368 370 370 370 369 368 367 368 368 367 365 360 355 354 351 352 354 354 357 356 355 351 349 347 350 351 350 349 350 352 355 356 357 357 356 354 352 354 353 353 352 352 354 353 350 350 349
337 345 340 345 344 344 346 346 347 348 347 348 347 350 355 363 360 355 359 360 360 361 361 360 360 359 359 360 360 361 365 366 365 363 363 361 361 363 365 364 363 366 368 370 370 367 365 362 359 358 353 353 354 353 353 354 354 355 355 352 352 353 351 351 351 352 353 355 356 357 357 358 357 355 354 355 353 353 351 350 351 352 350 350 349
337 341 342 343 347 348 347 346 345 344 344 345 347 349 351 352 358 357 362 361 363 363 361 360 359 360 361 363 363 365 365 365 364 362 363 363 362 362 361 358 360 364 368 369 366 366 361 360 359 357 357 356 355 356 356 355 355 355 355 355 355 355 355 353 352 353 355 356 357 356 356 357 357 355 353 353 353 354 354 354 352 352 351 349 348
338 341 342 344 345 348 349 347 346 346 344 345 347 350 352 353 357 359 361 362 364 362 361 360 360 361 363 365 362 363 365 364 365 365 364 363 364 362 358 358 362 361 362 363 361 354 352 359 358 357 355 354 353 358 356 347 351 357 357 356 356 356 356 355 354 351 350 352 354 355 355 355 353 353 353 352 352 353 354 354 354 353 353 351 347
335 339 342 345 343 341 343 343 343 344 345 344 346 348 347 348 353 360 361 362 362 362 361 361 362 364 362 361 359 361 363 363 364 364 365 365 364 363 358 356 357 356 356 355 353 355 356 359 356 354 353 352 355 350 341 344 346 346 354 357 356 354 355 354 353 354 354 352 353 353 353 355 353 354 354 353 353 353 352 354 355 354 354 355 353
336 337 342 343 346 345 340 341 342 342 341 346 348 348 348 349 351 359 363 363 364 363 361 361 362 362 360 360 359 359 361 363 363 364 364 363 362 359 353 354 351 352 351 346 347 352 357 358 356 353 351 353 351 342 338 340 339 339 343 355 356 354 355 355 354 353 353 354 355 353 354 355 353 352 347 346 346 346 347 350 353 355 354 354 349
337 339 343 346 350 351 351 343 343 344 344 347 348 351 351 349 349 358 362 365 363 362 361 361 360 360 361 359 360 360 359 362 363 364 364 363 356 353 352 350 350 352 352 351 353 353 356 355 355 355 355 354 348 343 335 337 336 336 340 348 354 355 355 354 354 354 353 354 352 348 350 350 349 344 340 340 342 342 343 346 350 354 354 355 353
337 339 342 346 348 352 355 347 342 343 344 346 349 352 348 347 348 350 357 358 356 361 361 361 360 360 362 361 360 360 360 361 363 363 362 355 352 353 351 350 350 352 351 351 356 355 354 353 354 356 354 349 344 334 335 335 333 334 337 350 355 355 354 355 357 355 354 351 350 349 349 348 349 341 335 336 337 338 341 345 347 350 353 354 355
339 341 344 346 348 349 351 350 351 345 345 348 350 351 350 348 348 348 349 350 349 353 361 363 362 363 363 363 361 360 361 361 362 361 355 350 351 350 348 351 352 351 352 356 357 356 353 352 350 353 350 343 338 328 331 331 329 329 338 356 356 356 355 354 353 354 354 355 354 352 350 348 348 344 332 329 331 336 340 343 345 346 348 350 356
341 342 345 348 348 350 349 349 349 347 348 349 354 353 355 350 345 346 347 346 347 349 356 362 362 363 364 364 363 361 361 359 352 349 349 350 350 352 353 352 350 351 351 353 355 355 357 354 352 352 350 346 342 329 324 324 325 325 343 354 356 357 352 351 351 353 355 353 352 350 346 343 343 340 328 322 325 335 340 342 343 344 344 344 346
341 344 346 348 348 349 348 346 344 345 346 348 347 350 350 348 349 348 348 348 348 351 357 361 362 363 363 359 359 359 352 350 350 350 349 351 353 354 352 353 353 352 353 352 354 355 356 354 352 352 352 347 340 330 322 321 321 323 337 354 357 354 352 356 354 351 355 351 348 351 344 338 336 331 322 321 322 333 338 340 340 340 339 341 338
344 344 344 347 347 349 346 346 345 343 345 345 347 346 348 348 348 351 351 351 351 354 359 358 356 353 352 355 354 353 351 351 351 351 348 346 348 352 354 357 357 355 353 354 353 352 351 353 353 353 353 347 341 333 319 319 320 323 338 354 357 353 352 350 351 349 351 348 341 342 342 335 331 324 319 319 320 328 335 339 339 339 338 337 333
344 347 348 348 349 349 347 345 343 343 344 346 343 343 342 342 346 350 352 353 357 358 355 356 354 352 351 350 348 348 348 352 351 351 352 352 351 355 356 355 355 354 352 354 351 349 349 349 353 352 350 347 341 335 327 317 318 322 328 352 352 348 349 348 348 349 348 346 343 337 332 324 322 320 318 317 318 320 331 337 337 334 333 331 332
343 345 350 346 346 346 345 344 341 340 342 342 343 341 340 340 344 348 352 356 358 355 354 352 352 350 349 348 347 346 346 351 356 354 354 355 356 356 357 355 353 350 350 350 351 350 350 351 353 352 350 346 342 336 328 317 317 319 323 340 347 342 341 347 347 348 345 344 343 338 335 326 319 319 318 315 315 319 328 338 335 333 332 329 327
345 348 348 344 344 346 345 344 342 342 343 342 341 340 338 338 338 342 346 357 357 355 353 352 352 350 348 347 348 347 353 356 357 357 354 354 357 358 355 353 352 350 345 343 345 347 346 349 351 350 347 345 345 342 337 322 318 316 317 325 341 340 335 344 352 344 344 343 343 338 336 328 318 318 316 313 313 317 325 339 331 317 316 319 329
342 345 346 345 344 344 344 343 343 344 343 341 340 338 339 339 338 338 345 353 356 353 352 351 352 348 347 347 346 347 353 357 356 356 355 354 355 353 352 350 348 346 346 344 343 343 344 342 346 348 346 345 343 342 340 334 320 315 315 318 322 334 326 347 347 343 344 345 344 341 337 332 319 313 310 313 314 321 337 327 313 315 318 321 329
343 345 346 347 345 344 344 344 343 343 344 343 341 340 341 339 338 342 346 353 356 355 354 352 350 349 351 351 349 351 355 355 355 356 354 351 350 350 349 347 346 344 342 340 341 342 341 341 345 345 346 344 342 341 339 338 330 316 314 316 319 320 325 335 346 344 344 344 343 339 336 317 314 309 309 312 315 325 328 316 314 318 324 334 337
341 343 347 348 346 345 343 344 344 343 344 345 344 342 341 342 346 346 347 355 355 356 356 353 350 350 352 353 353 353 353 353 355 354 351 349 348 347 344 343 343 342 342 340 342 342 343 345 346 345 345 344 343 342 340 338 333 329 320 317 319 321 324 323 346 343 342 339 329 320 315 314 314 311 310 315 320 329 323 323 322 327 332 330 331
341 343 346 348 349 348 346 345 344 345 345 349 351 349 348 352 355 356 356 353 351 353 353 353 353 353 353 354 351 351 352 354 354 354 353 350 348 347 346 345 344 343 344 342 345 345 346 346 345 345 345 345 345 345 345 343 341 340 335 324 321 323 342 351 343 339 337 327 323 319 316 316 319 323 333 339 339 340 332 330 330 332 328 327 327
339 342 345 346 347 347 348 348 347 349 348 348 349 350 354 357 353 354 355 352 350 351 352 354 354 352 353 352 352 349 348 349 351 352 353 350 348 349 346 344 343 343 345 345 345 344 345 344 344 344 344 345 345 346 346 344 342 347 346 342 344 346 348 349 340 337 340 342 341 338 338 328 329 331 335 337 338 337 334 333 326 326 328 325 326
342 344 345 345 346 346 347 347 348 350 351 350 350 350 351 353 353 354 352 349 350 350 349 351 348 351 351 349 349 349 339 332 330 330 330 339 341 337 333 332 336 344 346 345 345 344 345 344 343 343 343 342 340 333 328 328 327 328 336 338 335 336 336 336 331 329 331 338 344 342 339 344 343 341 339 339 338 332 329 327 329 327 330 324 324
342 343 345 344 345 346 347 348 348 350 351 351 353 353 353 352 353 350 347 344 345 344 345 345 348 349 348 345 341 336 333 329 324 321 317 315 318 331 332 326 322 320 324 339 346 345 345 345 345 343 342 338 334 328 324 313 317 309 320 330 328 326 326 330 327 315 327 340 344 344 342 341 334 331 329 327 326 325 325 326 326 323 324 319 319
343 344 344 345 346 347 347 347 348 351 351 351 352 354 354 352 351 350 347 342 342 343 344 345 345 346 348 350 339 337 334 331 328 324 322 319 314 304 311 324 321 317 311 311 319 337 337 332 326 321 327 335 329 323 308 300 298 299 300 301 304 301 304 316 314 312 328 338 336 335 335 329 327 326 322 322 320 320 320 319 319 321 320 316 316
342 341 342 343 344 347 347 347 349 351 352 351 352 352 351 351 350 349 348 347 344 345 344 343 344 346 345 345 340 339 337 335 332 330 328 325 322 316 302 303 310 311 307 304 305 308 313 321 327 323 315 308 309 303 298 297 298 297 296 296 296 297 299 300 303 320 331 335 331 327 326 325 324 321 319 317 317 317 317 316 315 315 316 314 315
Wind_Speed
11 12 14 16 16 15 13 13 13 15 15 15 14 14 13 10 11 12 11 9 9 9 8 9 9 7 8 9 10 9 8 8 8 7 7 7 5 6 9 7 7 7 6 6 5 5 4 4 4 3 3 3 3 3 5 6 3 3 6 2 5 4 3 3 7 5 4 4 2 2 2 3 1 1 4 4 7 2 4 3 4 4 3 3 3
10 12 14 15 14 15 14 12 13 16 14 15 16 16 16 16 13 12 11 10 12 11 10 10 8 8 8 9 9 9 8 7 7 7 8 7 5 6 8 6 6 6 6 6 5 6 5 5 4 4 4 3 3 3 5 3 4 4 4 4 3 5 3 7 7 6 6 5 3 4 3 1 3 2 3 2 5 5 6 5 3 2 4 7 5
9 9 13 14 15 16 14 12 13 14 16 15 15 15 14 14 13 11 11 11 10 12 9 8 8 8 9 8 9 8 9 8 8 8 8 8 8 7 8 7 6 6 6 6 6 7 6 5 5 5 4 3 3 3 4 5 4 6 5 4 6 4 4 6 6 4 5 2 3 2 1 2 4 2 2 3 3 8 8 7 6 6 8 8 5
6 9 12 11 13 14 13 13 14 13 13 14 14 15 13 10 10 12 10 11 10 10 9 10 9 7 6 7 8 7 5 6 8 7 7 8 8 9 4 5 8 8 9 9 7 6 6 5 6 4 3 3 3 3 3 5 4 5 6 5 5 5 5 5 6 3 4 2 3 1 2 3 1 2 2 2 3 8 7 9 8 7 8 5 5
8 7 5 8 13 14 15 13 13 14 14 14 14 14 12 15 10 11 10 10 11 10 10 8 7 7 7 6 4 6 3 7 6 7 7 5 6 8 10 7 6 7 8 9 8 6 6 5 5 4 4 5 4 4 5 7 7 5 5 4 4 5 6 5 4 6 6 5 3 0 2 1 2 2 3 3 2 4 9 9 8 10 10 9 4
8 8 8 7 13 11 15 14 13 14 14 14 14 14 13 14 13 11 9 9 10 13 11 9 8 8 7 7 7 6 6 5 8 8 8 8 8 7 10 10 9 8 6 7 8 7 6 5 5 5 5 5 5 6 5 5 5 6 6 4 6 6 5 3 6 5 5 4 7 6 1 2 1 4 2 2 4 5 1 4 10 10 10 6 5
10 9 7 6 7 12 10 14 13 14 14 13 14 14 15 14 13 14 10 8 10 9 11 8 8 7 8 10 8 7 6 6 4 6 6 7 7 8 6 9 9 9 8 6 6 6 5 6 5 5 5 5 5 5 5 7 7 5 3 2 4 5 4 3 4 6 6 5 5 6 8 8 8 5 4 2 3 2 3 4 2 12 10 9 8
10 9 8 8 6 10 12 11 14 14 14 15 14 14 15 11 13 12 9 8 9 8 11 9 7 7 8 8 9 8 9 6 6 5 6 4 6 6 6 9 9 8 6 5 6 7 6 5 5 5 6 7 5 6 6 5 5 4 2 3 4 4 2 3 3 4 4 3 4 6 7 6 5 6 6 3 2 2 1 3 4 4 9 10 10
11 9 11 10 11 10 11 10 15 16 11 13 13 13 14 13 12 12 10 9 8 9 10 10 8 8 7 9 7 7 7 7 4 4 4 4 4 5 5 8 8 8 6 7 6 6 6 5 6 6 6 6 5 6 4 5 5 5 3 2 4 4 3 2 2 3 4 6 4 3 3 3 4 4 6 4 3 3 4 3 3 3 5 3 10
11 11 11 13 11 11 11 13 13 9 4 7 8 6 6 13 12 12 11 10 9 8 10 11 10 8 8 8 8 6 6 5 5 5 5 3 4 4 4 3 8 7 6 5 6 6 7 7 7 9 8 8 7 6 6 5 6 5 5 6 3 3 2 3 4 4 5 6 6 5 3 2 3 5 4 6 5 4 5 4 3 4 3 2 3
10 12 11 10 10 9 9 11 7 2 3 8 11 7 4 9 12 13 12 10 10 10 11 12 11 9 9 9 8 8 7 7 6 6 6 3 4 7 5 6 5 7 7 6 7 8 8 7 8 8 8 7 6 6 6 7 8 7 8 6 5 4 2 4 5 4 4 3 6 5 6 6 5 5 4 6 5 4 4 5 6 5 5 6 3
12 13 12 11 9 9 9 11 11 9 8 6 5 8 9 10 13 13 12 11 10 11 11 12 11 10 10 9 9 8 8 8 7 6 7 6 6 6 6 6 6 6 5 5 7 9 7 7 8 8 7 7 7 6 6 6 6 4 3 1 3 4 5 4 4 4 6 5 5 6 6 7 7 7 7 6 5 5 4 4 6 4 6 6 4
10 12 11 11 12 12 14 13 10 13 10 12 14 9 9 7 11 15 12 12 10 11 11 12 10 10 10 10 9 7 7 6 6 6 7 7 7 7 5 6 6 7 8 8 9 10 7 7 8 7 5 6 5 4 6 5 3 3 3 6 6 5 5 5 4 6 7 6 6 5 6 7 7 7 7 7 6 6 4 5 3 6 6 5 3
13 14 14 12 11 13 14 13 12 10 13 15 16 10 8 7 8 14 14 12 11 10 11 11 11 10 9 9 9 7 6 7 6 8 9 6 7 6 9 9 7 8 8 8 8 9 7 9 8 7 5 4 5 3 3 3 3 4 3 3 5 2 4 5 5 6 5 7 5 6 6 7 7 7 7 7 7 7 5 6 4 4 6 6 5
14 13 12 13 13 13 12 12 13 13 14 12 11 11 12 11 9 12 12 13 12 11 10 11 10 11 9 10 9 8 9 8 7 7 7 8 9 10 6 8 9 8 7 7 9 8 10 8 8 7 6 4 4 4 6 3 3 2 2 4 3 4 3 4 4 7 8 6 4 5 6 7 6 7 7 7 7 6 7 5 5 6 3 3 4
14 13 14 14 14 13 11 7 11 12 12 11 13 11 10 9 7 9 13 13 13 12 9 11 10 10 9 8 9 8 6 8 6 6 5 7 9 8 7 5 6 6 6 6 9 9 7 7 8 8 5 7 5 3 4 4 5 4 3 3 4 6 5 4 4 7 8 7 7 6 5 5 4 5 7 8 7 6 7 3 4 3 6 5 3
11 13 13 11 13 13 12 11 12 12 10 10 9 9 9 9 8 7 11 12 13 11 11 10 9 9 10 10 10 10 10 11 9 10 10 8 5 7 7 9 6 4 7 6 6 5 6 10 8 9 5 4 5 5 6 5 3 4 6 5 4 5 1 4 3 4 4 6 5 5 3 5 5 3 4 5 5 6 7 6 4 5 4 5 3
6 13 10 13 12 12 13 14 15 14 13 12 9 12 8 8 8 7 7 11 11 12 11 11 11 11 10 12 11 10 11 11 10 10 11 8 7 5 6 6 7 8 6 6 6 8 5 5 6 8 9 7 7 7 6 5 4 2 3 1 3 2 2 3 3 5 5 4 6 7 5 5 5 5 5 6 5 3 4 5 5 6 6 5 2
7 6 6 8 11 12 13 16 18 14 12 12 10 12 9 7 8 8 8 9 11 10 10 9 9 8 8 9 11 10 10 10 7 8 8 8 7 8 8 5 8 6 5 4 3 5 5 5 4 4 4 6 4 5 4 3 3 2 3 3 2 2 2 3 4 4 6 5 5 6 6 4 2 4 5 5 5 3 3 3 4 4 3 4 3
7 7 9 9 10 15 16 14 15 14 13 12 11 10 13 9 8 7 6 5 5 9 9 7 8 6 6 7 3 6 8 9 8 8 8 9 8 8 9 10 9 7 5 5 6 6 7 7 7 7 7 7 8 7 6 6 3 2 2 4 4 3 4 4 5 6 6 5 4 5 3 2 3 3 4 5 4 4 4 4 4 3 3 1 4
13 11 12 16 16 15 15 17 15 13 11 10 11 11 12 10 10 9 6 14 12 12 15 13 11 10 12 10 8 3 8 12 6 8 7 8 9 9 10 6 6 6 5 7 7 6 5 4 6 6 7 2 2 1 4 3 3 3 3 3 3 3 3 3 3 6 6 6 4 4 3 3 3 5 4 5 5 6 5 4 3 4 4 2 4
14 16 14 12 12 18 17 17 14 12 12 11 10 10 10 10 9 9 13 10 10 8 7 7 9 10 12 9 9 9 11 8 11 12 11 10 11 8 3 1 4 4 4 5 6 8 7 6 7 7 6 4 3 3 3 4 4 3 4 4 4 3 4 3 3 4 4 4 5 4 4 5 3 5 6 6 6 5 5 5 4 5 5 8 7
18 21 13 10 12 14 14 13 13 13 11 12 11 10 11 12 11 12 12 10 8 10 11 11 9 5 6 6 6 5 2 5 7 1 5 10 10 4 1 5 8 9 6 5 6 7 5 6 6 4 7 5 3 3 2 2 2 2 3 4 3 4 3 4 5 4 5 4 5 5 4 3 2 5 7 5 5 5 5 6 6 5 4 3 3
19 18 16 5 8 8 6 7 7 9 8 10 9 9 11 12 15 13 12 11 10 7 6 4 5 8 9 8 7 5 4 6 7 5 2 6 3 2 2 3 6 5 5 4 4 4 8 5 4 3 4 5 4 2 1 1 1 2 2 3 3 3 6 7 6 4 5 6 5 6 7 7 4 3 4 5 5 4 4 3 5 4 3 2 1
17 22 17 4 5 6 5 4 5 5 4 5 8 7 10 14 14 12 12 11 10 9 9 8 9 11 9 8 9 7 6 6 6 7 8 7 5 5 4 3 3 1 1 3 1 2 4 2 3 2 2 2 3 3 1 2 2 2 2 3 4 3 4 5 6 6 4 5 7 4 5 5 5 5 4 4 4 6 5 3 2 3 2 2 2
17 21 15 3 3 3 7 6 5 4 3 2 6 8 11 12 11 11 11 9 10 10 9 10 9 10 9 9 8 7 7 6 5 6 7 5 3 3 2 2 3 3 2 2 4 2 1 2 1 1 0 1 4 5 4 4 5 5 4 3 4 4 3 3 4 4 4 3 4 1 3 6 6 6 6 3 2 6 5 4 4 3 3 2 2
19 18 10 2 3 5 8 5 5 7 9 5 3 4 11 11 11 10 9 10 11 10 10 11 11 11 10 10 9 8 7 7 5 6 5 5 4 5 4 5 6 5 4 4 3 2 1 1 1 3 9 10 6 6 6 5 3 2 4 3 2 2 3 3 2 3 4 4 4 3 6 6 8 5 5 6 3 3 4 6 5 3 3 2 3
18 6 7 4 4 3 4 6 5 5 6 6 10 5 2 11 12 10 9 10 10 12 13 14 13 12 12 12 11 11 9 8 6 6 5 6 6 5 6 5 3 2 3 3 2 2 1 4 7 8 8 3 3 3 4 4 4 1 1 0 1 4 5 3 3 3 5 5 4 4 3 3 3 2 5 4 5 3 3 4 4 3 4 5 4
20 8 5 7 4 4 2 4 4 6 6 4 6 7 6 8 9 10 6 6 11 13 14 13 12 12 12 11 11 11 9 8 7 7 6 6 6 4 2 3 4 2 3 2 3 2 5 6 5 5 5 4 2 2 4 3 3 3 3 3 3 2 2 4 4 5 4 4 4 4 3 3 3 4 6 9 9 8 6 6 5 3 3 3 4
15 13 5 7 4 4 5 4 4 4 5 4 5 7 3 4 9 12 11 12 12 11 12 11 11 11 10 9 9 9 9 8 8 8 7 7 6 4 3 4 3 2 2 2 2 5 5 4 3 4 5 4 3 4 4 9 8 2 3 3 2 4 4 4 3 3 4 3 3 3 4 8 8 6 5 6 5 6 7 6 5 5 4 3 4
13 13 8 4 6 6 5 5 4 3 5 4 4 7 6 6 9 12 13 13 11 10 9 11 12 10 8 6 7 9 10 10 9 8 7 7 7 5 5 4 3 1 1 4 8 6 2 3 4 3 5 4 4 5 13 10 6 5 5 4 4 3 3 2 2 3 3 4 4 4 3 4 3 1 1 0 4 5 7 7 8 7 6 4 4
16 13 9 6 10 6 3 1 3 3 3 5 3 3 7 7 8 11 11 12 10 9 10 10 9 9 8 7 7 8 9 9 9 9 8 8 7 7 7 5 3 2 6 8 5 1 4 3 3 4 3 3 3 6 5 6 6 6 5 1 2 1 1 1 2 1 1 2 3 3 3 1 3 4 5 6 7 8 7 6 7 8 7 7 5
15 18 12 10 8 10 14 4 0 3 4 4 5 3 3 5 7 9 7 9 9 9 8 8 8 9 9 8 8 9 9 8 9 8 7 7 7 6 6 2 2 5 6 4 3 4 3 3 2 3 4 4 5 6 6 6 6 5 5 4 1 3 0 0 1 0 0 1 1 2 2 3 5 12 8 6 5 6 9 11 10 4 4 5 5
16 17 15 12 9 8 9 16 11 9 9 7 8 9 10 10 7 9 6 4 5 5 6 7 8 9 9 9 9 10 9 8 8 7 6 7 7 8 7 6 5 0 4 5 5 5 2 2 2 4 5 6 6 5 7 8 7 7 6 3 1 1 1 0 1 1 0 3 5 5 5 4 6 6 5 6 5 6 5 6 5 3 0 2 4
18 17 17 14 11 9 7 10 15 12 9 10 11 9 8 5 6 0 5 2 1 3 4 6 7 8 9 9 10 10 9 8 7 6 5 8 7 7 8 4 6 6 4 4 4 5 3 1 3 2 5 6 5 9 8 8 7 6 6 4 2 1 1 2 2 3 3 6 4 2 3 4 5 5 5 7 6 6 6 6 6 4 2 3 2
16 17 15 15 13 11 10 4 8 12 10 8 10 10 9 7 9 5 4 4 2 6 8 8 8 9 9 9 9 9 8 7 6 4 7 9 7 8 10 8 6 4 4 3 2 4 4 5 5 4 6 7 5 7 7 8 7 6 7 3 2 3 2 2 4 3 4 3 3 2 3 5 5 5 9 12 9 7 5 6 6 6 5 3 2
16 15 14 13 12 11 13 14 12 8 5 8 5 11 11 11 10 12 13 16 16 14 9 8 8 8 8 8 8 8 6 6 10 8 6 6 8 8 9 7 6 4 3 3 4 4 4 5 4 5 6 6 6 7 8 7 6 8 5 3 4 1 5 3 2 2 1 5 7 7 7 6 6 6 11 11 12 10 5 6 6 6 6 6 5
13 13 13 11 12 12 12 9 7 7 7 6 13 12 2 10 12 13 9 8 10 10 9 8 7 5 3 3 2 4 10 7 9 9 8 9 7 6 7 6 6 6 4 4 2 4 4 5 6 6 6 6 6 7 7 7 7 8 5 2 1 4 2 1 3 3 6 8 11 17 10 6 6 6 10 10 11 8 5 5 6 6 6 3 7
10 10 12 11 10 8 6 4 2 4 2 4 6 11 9 3 5 5 7 7 7 8 6 7 6 7 8 8 8 7 4 5 7 7 5 4 6 6 5 5 5 6 6 6 4 5 4 4 4 6 11 8 6 5 6 6 5 6 5 3 2 2 1 2 3 3 8 7 7 10 15 11 8 6 7 8 10 8 4 6 6 6 6 7 7
13 7 8 8 7 5 5 4 5 6 7 7 7 6 9 11 11 7 7 8 7 4 6 8 9 9 9 13 11 6 4 3 7 6 6 7 7 5 7 7 5 5 6 5 7 5 6 4 5 7 7 7 6 5 4 5 9 11 10 4 5 5 5 3 3 2 5 6 6 6 8 10 7 5 5 6 6 6 5 5 6 6 7 7 8
13 11 10 9 7 6 4 4 2 2 3 3 3 7 7 8 13 10 7 4 2 4 7 8 9 10 12 14 12 12 12 8 7 7 6 7 7 7 6 7 8 7 6 5 5 5 7 6 5 6 6 6 5 5 5 8 11 11 13 9 4 6 5 5 4 5 5 6 6 6 5 5 5 5 5 5 5 5 5 4 4 4 3 4 6
11 8 10 9 7 6 4 3 3 2 2 3 1 8 7 5 8 12 12 3 3 4 6 7 8 8 10 11 9 6 4 7 7 8 9 8 6 6 6 7 6 7 8 7 5 4 4 4 5 7 7 7 7 8 5 7 9 10 11 11 6 5 4 4 4 3 4 6 5 5 4 3 6 8 9 9 8 6 7 5 6 5 8 7 5
10 8 8 9 7 7 7 5 3 3 2 1 3 6 7 6 3 12 14 6 3 4 6 6 7 9 9 9 8 8 5 7 8 9 8 7 6 6 7 7 8 9 8 7 5 3 6 3 3 6 6 6 6 5 6 6 6 8 8 8 7 5 6 5 5 5 6 5 5 5 4 4 4 5 7 9 10 11 7 5 8 9 7 9 7
10 8 7 7 6 5 4 6 6 5 4 4 2 4 6 7 4 8 12 8 5 7 6 6 8 9 10 9 9 9 8 9 10 9 9 8 7 7 7 8 8 8 8 7 4 3 4 7 6 6 6 6 5 4 5 6 5 4 6 7 7 6 4 4 3 4 4 5 4 3 3 3 1 3 4 6 7 8 5 7 8 9 9 6 5
10 9 8 4 4 4 3 5 5 5 4 6 4 4 5 5 5 8 10 6 4 6 6 8 9 10 10 9 9 9 9 9 9 10 9 9 8 9 7 7 7 6 7 7 5 7 7 6 6 7 7 6 5 4 3 3 4 5 5 5 6 7 7 7 6 5 4 4 3 4 3 0 2 4 4 4 6 7 5 7 8 7 11 5 6
9 10 9 8 4 4 2 4 7 7 4 4 4 2 1 1 4 7 7 5 4 5 6 7 10 11 12 12 11 10 9 8 9 8 8 8 9 9 9 8 7 5 6 7 7 7 6 6 6 6 7 6 5 4 4 4 3 3 2 2 4 6 3 3 5 4 5 3 1 2 4 5 4 4 1 0 2 3 9 11 12 10 4 5 5
10 10 10 9 8 7 6 7 9 6 5 4 4 5 3 2 1 6 4 5 7 5 4 7 9 12 12 12 11 8 8 8 6 6 3 6 5 6 9 9 9 8 8 9 7 7 7 7 7 7 7 6 5 4 5 6 5 2 1 2 1 2 2 0 5 5 3 2 2 2 1 1 2 4 5 5 3 6 4 3 5 5 4 6 5
9 10 10 9 8 8 8 9 8 6 3 5 3 4 5 3 2 3 5 3 4 3 6 5 2 5 10 10 10 14 11 8 8 7 6 5 7 6 6 5 4 5 8 8 8 7 6 8 8 8 7 7 6 6 5 5 5 5 4 5 6 6 6 5 5 5 5 5 2 2 0 2 2 2 3 2 2 4 5 6 4 4 3 6 8
10 10 10 9 8 9 9 10 9 7 5 3 3 3 5 7 8 9 8 6 7 12 11 8 1 4 2 7 10 11 10 10 10 11 11 9 6 5 8 9 8 5 4 3 8 7 7 6 6 5 7 6 6 5 4 3 3 4 6 6 6 5 4 4 4 3 5 4 1 2 1 2 3 3 4 5 5 6 5 4 5 6 5 7 6
9 8 10 10 10 10 9 9 9 7 6 4 4 3 4 5 8 6 5 4 7 11 11 10 4 4 3 5 10 11 10 10 11 11 12 13 19 18 13 8 7 10 13 17 14 7 8 8 8 7 4 6 6 5 4 5 5 6 6 5 3 3 1 3 8 12 4 2 3 3 3 4 5 5 6 5 6 5 5 5 5 6 5 7 6
10 10 10 11 10 10 10 9 9 8 6 4 3 2 6 9 8 6 6 4 4 2 5 9 6 2 4 2 11 9 10 10 11 11 11 12 11 13 18 17 15 13 18 21 20 20 18 14 12 10 11 17 12 9 7 6 5 5 6 8 9 10 10 9 9 8 5 2 5 6 6 6 5 5 6 6 6 5 5 6 6 6 6 8 7
Wind_Direction
195 196 189 188 190 183 193 184 186 180 195 184 185 165 169 182 176 169 164 181 152 175 179 190 194 191 197 200 202 194 202 211 216 223 212 209 193 167 159 159 177 179 190 193 204 221 241 261 250 232 252 238 234 262 264 276 317 357 315 258 262 270 272 229 233 259 265 285 304 299 267 276 359 327 212 90 104 176 127 218 26 352 313 203 208
275 193 198 191 196 183 192 183 193 185 191 183 186 182 182 175 163 170 166 188 168 175 177 190 197 192 192 201 203 198 187 201 214 215 220 210 172 140 160 166 174 177 179 196 206 207 224 238 242 256 235 233 255 247 269 303 311 298 278 302 238 246 268 259 243 212 220 244 235 228 192 205 94 272 287 344 105 145 172 128 188 237 286 260 199
268 235 215 194 194 186 191 189 191 195 186 193 184 185 187 177 170 175 178 183 176 179 177 189 190 192 195 197 209 203 191 191 212 214 213 217 181 185 159 166 173 183 189 194 203 215 217 221 231 219 221 228 225 251 251 255 259 263 252 252 284 272 236 249 260 265 297 191 227 53 256 290 350 335 275 257 147 149 172 157 176 183 225 237 236
237 247 222 202 194 191 191 193 191 197 186 194 188 186 187 187 165 171 177 179 172 178 174 187 194 200 199 202 210 229 182 186 198 214 211 205 204 172 180 164 176 191 195 197 208 209 209 221 229 232 174 225 201 228 262 252 240 248 254 232 227 265 271 244 254 215 196 289 311 212 219 254 187 255 254 232 221 180 184 163 174 201 220 226 237
311 273 333 309 222 197 194 194 191 198 189 192 191 187 190 184 173 166 174 187 162 173 177 179 183 199 206 205 237 234 192 190 202 207 201 200 211 173 185 183 189 205 195 200 207 204 201 214 227 233 211 193 216 222 224 245 244 242 231 247 247 246 252 269 246 235 189 182 224 73 308 330 261 247 227 210 188 242 179 180 186 192 202 210 205
186 230 209 172 299 260 200 197 195 198 196 191 193 190 190 182 177 159 179 188 186 173 179 169 183 203 185 191 207 209 214 198 198 199 197 190 205 207 168 183 185 204 210 201 200 201 195 201 209 235 232 194 208 228 228 246 263 240 251 241 254 239 252 305 303 311 285 181 181 200 247 257 219 269 266 238 201 226 277 237 182 202 202 184 210
174 202 192 188 166 302 261 211 203 207 199 193 195 192 192 182 183 174 176 184 191 173 169 170 188 194 195 197 203 201 207 208 213 204 194 199 204 203 172 171 184 194 209 205 201 195 191 193 205 222 237 230 201 225 219 230 244 249 249 279 267 295 292 250 285 295 321 332 279 235 206 195 220 233 227 314 296 178 208 260 210 191 201 181 199
182 191 198 189 197 184 253 223 208 213 206 196 196 194 190 176 182 173 172 181 192 170 171 176 187 191 191 200 198 205 203 204 207 216 213 211 194 201 187 171 177 186 201 204 197 196 191 191 199 213 229 238 226 216 229 217 243 255 256 247 291 283 310 285 263 272 278 240 257 295 310 305 307 303 294 252 223 285 259 214 270 282 189 200 198
205 195 185 192 197 214 219 238 220 211 217 209 199 196 188 186 179 171 173 180 191 178 171 177 188 194 188 198 207 204 208 202 202 209 232 222 202 192 197 164 179 184 198 192 194 197 186 200 199 207 222 236 245 233 230 235 246 237 183 211 218 238 250 275 308 308 306 289 294 272 285 286 270 274 296 306 284 295 278 265 248 243 275 223 185
197 208 198 194 195 205 217 226 234 198 168 315 226 199 216 196 182 172 177 180 192 187 175 176 191 192 190 199 205 204 209 205 196 194 219 223 161 209 161 121 166 178 188 198 182 202 195 197 209 210 216 225 229 236 212 223 229 217 195 222 232 258 241 256 249 225 232 263 275 300 296 287 288 287 299 301 294 276 277 291 295 304 290 242 261
183 196 201 197 198 200 222 222 197 168 179 194 231 142 222 224 190 175 175 182 194 196 178 180 189 193 196 198 205 207 208 214 197 188 181 217 178 188 187 149 183 181 196 190 195 201 208 199 212 212 213 217 222 227 235 217 218 214 227 203 206 223 249 261 271 281 269 267 280 271 272 269 243 248 240 243 257 273 282 272 271 261 287 309 301
198 194 194 194 197 208 218 226 187 193 193 244 233 179 178 214 177 171 174 183 193 196 184 184 189 196 198 197 204 207 211 210 206 182 182 194 200 186 185 189 172 194 202 189 206 202 201 200 212 220 209 218 209 220 236 229 241 234 225 282 211 192 228 242 252 277 271 255 245 258 273 278 275 271 272 271 243 235 254 294 299 302 283 270 269
214 188 196 199 198 201 213 213 193 193 170 184 221 172 168 203 180 176 175 182 189 192 185 188 192 196 199 196 203 210 212 222 203 195 186 189 198 199 182 182 189 188 186 199 201 212 194 197 203 217 222 203 227 209 209 241 257 252 229 214 212 201 196 209 214 230 249 258 260 266 256 258 268 277 276 277 293 313 304 292 279 281 285 292 307
209 214 190 193 200 205 207 209 196 203 203 186 176 178 156 203 197 178 179 180 184 195 188 190 193 197 199 198 200 205 206 212 214 206 197 190 196 211 199 194 191 209 197 188 201 206 205 199 199 208 222 206 208 235 256 237 219 238 247 241 257 196 221 220 218 243 248 255 265 267 269 278 283 289 291 286 280 284 283 281 304 18 355 328 325
206 207 205 191 192 199 207 210 197 191 190 199 188 133 158 184 192 183 181 181 186 193 183 187 192 197 198 202 199 199 205 205 211 214 203 198 199 207 220 197 196 195 211 187 186 204 194 201 206 205 213 220 187 199 226 238 271 268 293 312 298 262 239 241 246 248 249 260 280 275 281 275 273 283 283 281 290 291 306 326 16 327 329 329 299
203 203 196 189 191 193 211 215 201 201 179 185 186 137 153 160 164 194 186 181 184 187 182 185 192 196 198 206 201 201 199 205 206 220 223 213 208 211 197 235 208 187 197 208 188 189 184 201 194 211 203 191 197 202 217 227 200 217 231 240 256 257 264 265 246 257 259 258 262 272 277 292 349 335 333 329 329 318 299 337 315 310 299 298 314
202 187 187 189 195 192 197 200 209 207 193 185 192 140 144 159 170 198 194 181 183 182 183 188 190 191 196 203 205 202 205 207 204 205 217 219 226 219 211 202 217 225 201 208 206 186 194 172 191 208 195 193 199 194 213 231 238 199 206 205 231 258 331 29 341 323 319 292 272 268 287 274 270 284 303 313 325 346 338 328 310 285 281 268 286
228 185 178 178 197 197 198 201 204 203 196 197 161 125 163 167 158 181 208 186 183 179 181 188 188 193 193 203 207 202 204 209 207 203 208 215 219 222 225 193 210 207 225 213 204 187 201 201 193 192 194 199 197 199 207 213 212 239 240 166 234 263 347 318 319 307 296 301 304 306 310 329 349 333 325 323 326 21 331 337 335 334 343 321 312
305 205 165 183 185 186 193 202 205 202 191 182 159 152 170 176 160 177 201 199 183 182 181 182 184 190 200 202 211 212 207 211 220 208 204 224 221 213 218 216 207 217 199 216 207 214 206 198 211 231 207 188 188 213 184 220 210 194 251 238 234 206 250 266 280 277 271 271 280 278 272 281 345 326 313 305 308 321 318 306 300 301 317 327 72
302 247 191 198 207 187 199 206 200 198 187 172 148 151 168 167 159 165 200 234 204 184 179 170 175 196 200 195 222 338 305 229 203 214 207 216 219 229 221 217 216 216 206 200 217 221 214 201 201 218 229 211 194 197 178 197 172 198 228 244 247 226 214 242 261 269 271 268 265 269 282 290 300 293 293 293 291 286 288 291 289 320 307 296 123
304 263 208 198 201 205 198 204 200 190 178 150 160 170 167 162 166 171 120 59 4 27 27 30 23 32 26 4 12 39 282 289 282 264 212 209 215 222 227 217 236 219 209 199 200 218 243 203 183 214 230 79 37 163 192 150 157 183 209 268 287 306 280 244 240 258 276 287 291 283 271 269 278 284 283 284 285 291 292 284 282 273 275 327 19
299 288 228 213 194 195 195 197 187 179 178 166 161 165 149 146 145 114 105 117 106 112 128 150 174 164 151 162 185 202 208 225 234 203 220 218 218 221 220 52 291 254 244 229 200 207 216 230 223 171 203 199 190 157 182 158 168 179 224 239 254 244 255 262 281 284 276 262 277 289 301 306 315 298 295 291 297 306 309 311 322 342 2 34 37
298 294 252 226 195 204 196 187 185 182 180 173 172 165 152 146 117 93 94 116 145 150 163 177 174 149 119 163 204 232 305 238 250 267 23 301 275 181 124 241 218 218 209 230 227 216 216 207 212 185 175 173 153 158 154 159 184 230 243 244 267 295 289 272 264 264 261 288 296 294 301 313 14 327 311 321 339 331 344 336 342 3 32 30 84
307 302 273 227 216 196 149 137 159 175 179 171 173 151 147 119 105 115 139 168 173 162 149 153 133 167 179 180 196 187 203 247 228 103 146 207 167 113 79 47 355 325 249 204 240 232 69 52 59 63 64 103 119 90 73 325 293 295 299 294 303 339 343 324 298 295 325 312 316 329 333 345 348 314 310 326 330 344 330 324 330 352 25 35 130
314 298 275 249 225 194 117 116 111 109 144 150 165 152 128 121 136 148 165 171 149 156 160 157 169 174 181 181 189 184 194 229 217 157 194 209 186 149 161 167 167 267 269 98 148 56 90 68 76 88 120 117 137 151 193 240 253 280 348 12 37 10 337 317 321 337 329 325 316 341 316 297 320 314 300 273 267 285 282 264 248 258 254 181 156
299 286 275 259 249 187 101 106 106 103 91 119 154 137 130 135 145 144 150 148 154 162 165 163 174 176 178 184 188 188 200 213 184 146 172 196 172 112 175 211 164 193 160 141 111 137 124 137 117 61 83 22 28 5 12 12 32 32 37 40 31 13 329 331 314 299 316 297 277 240 294 299 278 268 282 311 320 295 292 273 254 250 219 210 224
288 264 268 223 188 157 121 137 120 120 131 104 358 148 141 143 150 158 157 152 155 160 171 170 178 180 178 182 184 187 190 205 186 160 175 195 185 152 192 200 194 187 163 129 137 146 145 188 97 43 37 30 26 14 355 331 318 30 40 31 35 11 316 293 323 345 301 258 248 234 178 229 258 244 255 263 261 260 289 297 299 298 300 311 268
307 254 276 218 216 196 141 137 121 117 144 137 116 332 152 150 159 161 161 157 158 166 177 178 178 181 179 181 180 180 187 189 166 164 177 184 182 189 199 203 168 132 105 114 120 124 99 64 58 67 76 50 317 261 226 257 272 271 183 127 190 249 266 278 266 248 259 261 253 251 250 223 249 339 322 327 283 244 235 263 278 306 295 281 297
308 293 191 267 217 231 184 111 113 117 120 118 94 109 236 168 133 137 179 183 173 177 181 180 177 178 183 179 175 178 173 166 163 172 177 179 194 197 189 45 32 25 95 112 96 87 67 65 69 94 117 169 248 307 268 207 182 213 164 187 200 216 235 252 265 254 253 264 262 274 276 254 262 302 313 329 327 324 316 309 296 276 282 284 298
304 302 217 222 233 172 181 139 122 121 124 125 111 118 182 244 164 171 160 189 194 183 177 180 182 185 184 176 171 164 165 161 168 175 181 182 182 175 112 80 57 355 32 68 82 72 53 86 116 147 154 137 165 187 189 270 249 202 196 185 197 210 206 217 229 263 270 279 280 315 320 322 17 26 340 313 319 310 306 292 290 305 299 289 301
296 301 309 198 160 158 143 122 119 142 146 132 147 141 138 214 189 182 184 188 185 181 180 179 186 190 190 170 161 166 166 168 173 175 181 183 177 154 118 122 121 98 27 36 35 46 308 222 154 132 109 114 175 153 153 187 194 205 190 183 200 193 205 229 292 322 354 306 356 3 34 332 19 13 5 348 290 304 292 283 278 271 279 290 294
310 297 303 291 134 140 55 31 128 161 176 143 136 146 147 203 229 205 193 190 187 184 184 182 176 177 179 182 173 174 176 176 176 179 179 178 164 159 130 129 156 143 58 40 36 209 202 152 133 121 109 132 129 98 115 104 77 34 1 359 200 178 114 272 247 129 198 354 354 7 330 351 42 36 35 13 6 352 343 312 282 270 274 275 272
313 308 319 318 355 109 137 172 51 233 205 180 139 145 200 195 231 232 208 188 191 180 174 166 167 174 176 181 185 187 187 182 183 179 178 161 152 111 92 125 109 54 80 102 227 248 230 165 157 146 152 169 123 90 85 76 70 55 24 338 102 53 335 168 96 99 337 346 326 275 288 87 74 49 29 13 0 347 340 333 329 306 278 273 236
303 305 326 322 335 9 104 140 160 215 211 180 175 185 178 176 203 254 213 205 175 170 169 168 168 178 180 185 186 190 191 189 183 179 166 145 114 93 88 56 55 210 181 172 189 201 234 159 204 189 139 117 93 60 47 50 44 41 27 343 351 89 164 281 81 154 54 68 52 30 16 42 82 55 32 8 348 339 328 320 321 320 220 272 231
311 314 322 328 331 358 31 98 147 203 214 185 186 195 205 180 160 279 271 93 280 161 201 190 185 187 188 187 191 191 188 186 178 169 143 83 77 96 89 148 202 197 161 181 179 142 160 152 56 36 104 83 65 41 48 45 36 21 357 307 233 187 152 198 191 89 72 75 76 58 44 39 77 69 35 7 353 337 328 321 316 319 290 200 183
307 311 320 328 338 346 356 36 115 172 225 202 177 180 174 132 99 123 112 113 166 245 215 196 194 195 197 192 194 190 180 174 165 112 78 89 111 140 147 188 181 154 191 191 159 138 155 147 152 114 96 93 70 43 52 43 29 11 344 291 265 228 187 131 76 54 57 108 108 55 40 46 47 60 25 9 358 332 321 327 331 327 323 306 153
307 319 322 334 339 344 3 6 19 20 348 315 270 176 168 133 161 188 176 173 181 192 204 199 194 188 194 192 192 188 163 93 56 66 99 138 162 157 139 159 158 166 163 153 158 151 112 111 115 108 107 105 85 46 44 41 30 12 351 304 279 83 77 73 354 104 138 61 59 47 43 34 29 33 12 359 352 346 333 344 336 334 337 334 64
312 320 322 339 353 13 39 55 54 21 14 345 337 317 106 168 187 191 194 198 179 180 185 182 180 169 124 13 349 64 77 112 138 139 172 178 146 111 130 158 154 153 140 80 16 83 80 96 114 138 125 108 86 47 43 36 28 2 311 298 8 76 71 171 194 143 96 81 62 59 53 47 41 25 6 3 357 348 348 348 350 340 328 360 42
318 316 312 339 24 45 48 48 90 125 123 77 32 352 336 259 253 216 192 194 194 186 157 123 97 76 59 45 53 67 116 125 118 151 168 119 105 122 136 143 143 136 131 142 138 112 95 92 130 126 117 115 105 75 44 32 32 19 11 7 331 97 75 10 32 45 96 100 84 62 59 56 54 36 20 18 15 9 352 351 353 345 351 11 23
332 337 328 352 36 52 47 37 19 13 9 34 50 53 11 330 276 258 217 208 195 155 99 87 86 77 79 93 102 101 95 171 159 154 148 137 136 146 147 138 117 93 77 83 101 102 116 135 140 114 113 115 107 86 47 39 40 33 18 19 38 16 23 20 66 299 115 119 105 84 58 51 45 40 35 29 22 13 5 350 6 10 2 357 351
329 346 1 357 22 27 42 44 72 42 37 30 92 82 58 357 309 285 250 227 111 105 100 106 121 131 131 132 149 165 164 159 153 149 146 133 136 139 130 118 111 106 105 89 94 111 122 134 120 108 107 102 109 110 58 49 51 43 35 31 52 38 12 358 352 349 49 69 76 75 77 51 23 34 41 28 20 357 346 353 28 22 11 317 316
315 339 7 353 351 8 30 56 34 351 349 280 86 87 80 60 329 306 284 280 159 135 125 145 166 143 126 124 140 129 156 135 130 129 135 136 135 125 118 107 100 115 117 115 115 97 79 70 102 95 93 90 96 97 91 55 59 58 55 48 45 47 7 323 355 352 53 70 73 78 78 34 13 22 15 11 7 3 341 25 14 343 318 324 321
326 352 1 348 341 355 355 350 5 337 283 250 75 88 100 85 323 291 281 257 200 130 140 163 126 109 127 139 140 144 166 129 131 136 131 124 119 112 106 107 107 108 111 106 93 79 88 63 171 115 104 103 97 81 82 86 65 62 67 67 62 53 358 15 6 32 39 49 78 95 102 89 22 11 2 354 353 359 26 22 338 325 317 310 298
333 339 341 333 334 338 333 324 322 316 311 291 258 116 112 112 227 256 263 234 188 156 162 142 121 128 143 148 147 158 151 135 138 134 128 127 124 121 112 110 113 113 112 102 86 82 136 184 152 121 121 111 94 89 71 76 79 62 44 41 52 61 52 15 359 38 53 62 74 76 89 114 33 347 341 336 332 330 342 337 336 321 311 312 352
321 327 334 319 298 312 314 307 294 273 269 256 225 134 127 155 201 218 246 248 189 160 171 157 147 148 148 150 143 145 145 139 141 136 129 131 128 129 119 123 124 123 120 125 149 170 171 154 135 130 124 116 111 107 118 114 108 80 50 27 2 3 10 10 27 47 49 58 68 83 90 134 259 280 290 296 298 286 301 358 329 0 35 25 12
318 322 331 313 256 273 283 286 272 270 284 280 272 239 186 173 179 210 207 212 182 202 173 195 158 156 157 151 143 144 141 133 138 134 134 138 142 146 142 144 125 118 136 153 162 154 147 133 125 126 118 124 129 130 127 123 112 94 77 352 331 326 356 39 54 75 69 109 110 354 304 282 247 252 246 150 303 16 54 31 19 27 38 30 33
320 320 316 317 313 314 313 301 293 275 274 284 302 319 308 114 177 247 224 199 202 203 214 196 164 160 156 151 143 134 117 106 106 110 154 134 132 141 138 145 142 156 159 147 138 151 140 134 127 118 116 115 117 89 64 52 30 39 130 178 247 343 324 28 55 26 350 288 217 208 215 110 62 23 352 325 334 46 42 62 75 11 32 34 27
315 310 313 310 314 321 319 307 304 308 248 258 289 316 310 291 256 270 331 310 297 202 228 201 190 201 153 145 127 111 98 79 64 60 55 76 89 81 74 60 94 131 151 149 151 144 130 134 132 128 123 121 97 66 42 32 25 13 2 41 42 30 23 29 22 5 333 314 333 121 23 203 200 172 210 222 50 47 30 356 27 24 39 46 30
314 313 310 311 314 313 308 299 297 296 298 292 292 322 351 7 33 29 46 17 353 324 326 297 99 353 25 100 102 96 97 98 87 73 61 39 5 33 71 70 49 16 354 140 132 117 127 115 107 110 130 109 92 78 63 38 62 27 30 36 34 29 13 9 11 336 316 313 330 52 115 44 39 66 45 44 40 37 19 13 18 353 28 47 36
309 308 308 311 310 303 306 306 301 302 304 311 324 13 31 31 67 71 79 48 10 346 344 322 35 11 32 90 102 104 103 101 96 96 87 67 52 45 33 58 57 32 56 58 64 86 84 94 81 40 12 101 105 109 113 73 63 56 54 74 104 86 32 358 342 326 297 266 43 62 32 42 15 36 41 30 19 21 16 5 5 2 33 40 32
310 309 308 310 310 309 306 307 304 298 300 306 307 345 42 54 63 72 66 87 127 102 20 4 52 81 288 140 117 115 112 106 108 107 99 98 84 53 50 54 64 60 59 60 64 67 66 74 96 93 60 70 95 103 93 83 62 43 35 30 24 12 9 360 13 5 340 33 67 34 27 35 24 34 38 29 14 17 13 9 14 15 34 30 19